Weather History for 11813 - November, 2013

Change the Weather History Date:

Thursday, November 28, 2013

  Actual Average Record
Temperature  
Mean Temperature 30 °F -  
Max Temperature 36 °F - - ()
Min Temperature 25 °F - - ()
Degree Days  
Heating Degree Days 34    
Moisture  
Dew Point 22 °F    
Average Humidity 62    
Maximum Humidity 83    
Minimum Humidity 36    
Precipitation  
Precipitation 0.00 in - - ()
Sea Level Pressure  
Sea Level Pressure 30.40 in    
Wind  
Wind Speed 9 mph ()    
Max Wind Speed 13 mph    
Max Gust Speed -    
Visibility 15.8 miles    
Events      
T = Trace of Precipitation, MM = Missing Value Source: Averaged Metar Reports

Daily Weather History Graph

Daily Weather History Graph

Search for Another Location

Airport or City:

Trip Planner

Search our weather history database for the weather conditions in past years. The results will help you decide how hot, cold, wet, or windy it might be!

Date:

Astronomy

Nov. 28, 2013 Rise Set
Actual Time 7:17 AM CET 4:01 PM CET
Civil Twilight 6:41 AM CET 4:37 PM CET
Nautical Twilight 6:02 AM CET 5:15 PM CET
Astronomical Twilight 5:25 AM CET 5:53 PM CET
Moon 1:39 AM CET (11/28) 1:21 PM CET (11/28)
Length of Visible Light 9h 55m
Length of Day
8h 44m
Waning Crescent, 25% of the Moon is Illuminated
Nov 28
Waning Crescent
Dec 3
New
Dec 9
First Quarter
Dec 17
Full
Dec 25
Last Quarter

Hourly Weather History & Observations

Time (CET) Temp. Dew Point Humidity Pressure Visibility Wind Dir Wind Speed Gust Speed Precip Events Conditions
12:00 AM 29 °F 20 °F 58% 30.48 in - WNW 13.4 mph - -  
1:00 AM 29 °F 20 °F 57% 30.48 in - WNW 13.4 mph - -  
2:00 AM 27 °F 19 °F 63% 30.48 in - WNW 11.2 mph - -  
3:00 AM 27 °F 20 °F 64% 30.47 in - West 13.4 mph - -  
4:00 AM 27 °F 19 °F 63% 30.45 in - West 13.4 mph - -  
5:00 AM 26 °F 19 °F 66% 30.45 in - West 8.9 mph - -  
6:00 AM 26 °F 19 °F 65% 30.45 in - 4.5 mph - -  
7:00 AM 25 °F 19 °F 69% 30.45 in 16 mi West 6.7 mph - -   Scattered Clouds
8:00 AM 26 °F 20 °F 68% 30.45 in 16 mi WSW 6.7 mph - -   Scattered Clouds
9:00 AM 30 °F 20 °F 54% 30.44 in 16 mi WSW 6.7 mph - -   Scattered Clouds
10:00 AM 33 °F 20 °F 47% 30.43 in 19 mi WSW 6.7 mph - -   Scattered Clouds
11:00 AM 35 °F 18 °F 36% 30.41 in 25 mi WSW 11.2 mph - -   Mostly Cloudy
12:00 PM 35 °F 20 °F 41% 30.38 in 25 mi WSW 11.2 mph - -   Mostly Cloudy
1:00 PM 35 °F 18 °F 37% 30.36 in 25 mi WSW 8.9 mph - -   Mostly Cloudy
2:00 PM 33 °F 25 °F 62% 30.36 in 12 mi West 8.9 mph - -   Ice Pellets
3:00 PM 31 °F 25 °F 71% 30.34 in - West 13.4 mph - -  
4:00 PM 32 °F 24 °F 64% 30.33 in - West 8.9 mph - -  
5:00 PM 31 °F 28 °F 83% 30.33 in - West 6.7 mph - -  
6:00 PM 31 °F 28 °F 82% 30.33 in - WSW 6.7 mph - -  
7:00 PM 32 °F 26 °F 72% 30.31 in - West 8.9 mph - -  
8:00 PM 32 °F 27 °F 73% 30.31 in - West 8.9 mph - -  
9:00 PM 32 °F 26 °F 72% 30.31 in - West 11.2 mph - -  
10:00 PM 33 °F 26 °F 68% 30.30 in - West 11.2 mph - -